XM-5

Last updated on Tue Sep 16 2025 00:02:47 GMT+0000 (Coordinated Universal Time)

1 37185U 10053A 25258.56169584 -.00000040 00000+0 00000+0 0 9992 2 37185 0.0613 272.5067 0000346 112.1946 57.0874 1.00269864 54727
UTC large
Height (km)
Speed (km/s)
/
Latitude / Longitude
Inclination (degrees)
Orbital Period (minutes)
Azimuth
Elevation
Range (km)
Doppler Factor

Next 0 passes for location: London (51.5072 / 0.1276)

Sorry there are no passes over London.